KMRYKHAF

Guest
Details From KMRY - Monterey Peninsula
To KHAF - HALF MOON BAY
Flight Number -
Tags decoded
Created
Modified
Stats Distance 64 nm / 119 km
Max Altitude 0 ft / 0 m
Waypoints 3
Social Downloads 0
Likes 0
Share VATSIM

Download

Looking for another format? Having issues loading an existing format? Contact us
Advertisement - Login to hide

Notes

Requested: KMRY HOMKA KHAF

Route

KMRY HOMKA KHAF

ID Type Via Altitude Latitude Longitude Leg Dist Tot Dist Heading (true) Name
O KMRY APT - 0 ft / 0 m 36.58692˚ -121.84193˚ - 0 nm - Monterey Peninsula
HOMKA FIX - 0 ft / 0 m 37.33567˚ -122.44389˚ 53 nm 53 nm 327° / 327° -
O KHAF APT - 0 ft / 0 m 37.51343˚ -122.50116˚ 11 nm 64 nm 346° / 346° HALF MOON BAY

Altitude Profile

Advertisement - Login to hide

KMRY

Details ICAO KMRY (MRY)
Name Monterey Peninsula
Region United States
Timezone America/Los_Angeles (UTC-7.0)
Stats Elevation 257 ft / 78 m (AMSL)
Location 36.586916° -121.841927°
Runways 2
Magnetic Variation 13.117° E

METAR

KMRY 272054Z 33007KT 9SM CLR 16/11 A3000 RMK AO2 SLP170 T01610111 58008

Decode

TAF

KMRY 271910Z 2719/2818 30007KT P6SM FEW007 FM272100 26010KT P6SM FEW009 FM280400 18004KT P6SM FEW007 FM280600 VRB02KT 1SM BR OVC002 TEMPO 2807/2810 SCT005 FM281400 VRB03KT P6SM SKC

Decode

Departure Runways

ID Width Length Bearing (true) Bearing (mag) Surface Threshold Offset Overrun Length
10L 59 ft / 18 m 3,508 ft / 1,069 m 112.85° 99.73° Asphalt 0 ft / 0 m 230 ft / 70 m
10R 151 ft / 46 m 7,605 ft / 2,318 m 112.84° 99.72° Asphalt 0 ft / 0 m 174 ft / 53 m
28L 151 ft / 46 m 7,605 ft / 2,318 m 292.85° 279.73° Asphalt 1,001 ft / 305 m 190 ft / 58 m
28R 59 ft / 18 m 3,508 ft / 1,069 m 292.85° 279.73° Asphalt 0 ft / 0 m 0 ft / 0 m

KHAF

Details ICAO KHAF
Name HALF MOON BAY
Region United States
Timezone America/Los_Angeles (UTC-7.0)
Stats Elevation 66 ft / 20 m (AMSL)
Location 37.513435° -122.501163°
Runways 1
Magnetic Variation 13.417° E

METAR

KHAF 272140Z AUTO 30010KT 4SM HZ CLR 14/12 A3000 RMK AO2

Decode

TAF

Not found

Destination Runways

ID Width Length Bearing (true) Bearing (mag) Surface Threshold Offset Overrun Length
12 151 ft / 46 m 5,005 ft / 1,525 m 137.06° 123.64° Asphalt 764 ft / 233 m 0 ft / 0 m
30 151 ft / 46 m 5,005 ft / 1,525 m 317.06° 303.64° Asphalt 764 ft / 233 m 0 ft / 0 m

Popular Alternatives